Location: Pegasus Observatory
(35.6569°N, 82.5850°W)
Time: 15:35:31
(UTC-04:00)

VELOX 1 - Visible Passes

Search period start: 10 April 2020 00:00
Search period end: 20 April 2020 00:00
Orbit: 628 x 644 km, 98.3° (Epoch: 10 April)

Date Brightness Start Highest point End Pass type
(mag) Time Alt. Az. Time Alt. Az. Time Alt. Az.
16 Apr ? 02:55:23 11° NNE 02:55:23 11° NNE 02:55:35 10° NNE visible
17 Apr ? 03:17:43 13° N 03:17:43 13° N 03:18:13 10° N visible
18 Apr ? 03:40:03 13° NNW 03:40:03 13° NNW 03:40:33 10° NNW visible
19 Apr ? 04:02:23 12° NNW 04:02:23 12° NNW 04:02:39 10° NNW visible
